Retour au catalogue

STARLINK-35704

ActifCommunicationsVLEO
NORAD 66221·PAYLOAD·🇺🇸 United States

Lancé Oct 28, 2025 depuis Vandenberg Space Force Base

Loading…

Prochains Passages (prochaines 24 heures)

TLE

FraisSource: CelesTrak SupGP

Époque: Sep 15, 2026, 03:13 UTC

1 66221C 25244R   26258.13451389 -.00027940  00000+0 -82522-3 0  2584
2 66221  53.1598  68.6330 0000860  93.7884 246.9986 15.34414921    18

Suivez STARLINK-35704 en temps réel avec AllMySat

Download on the App Store